Weather in Popovka

Russia / Republic of Tatarstan     54°11′11″N   53°14′12″E
temp.,
°C
wind,
m/s
gust,
m/s
humid.,
%
clouds,
%
prec.,
mm/h
press.,
hPa
HPBL,
m
16 january, sun
sun1600:00−13w5994100 0.6 985374
03:00−16w499493 0.8 988233
06:00−17w399596 0.1 989238
09:00−17w3994100 0.1 992258
12:00−13w5992100 0.1 993415
15:00−12w51092100 0.3 996418
18:00−12w51193100 0.0 998332
21:00−12w5119373 0.1 1001304
17 january, mon
mon1700:00−14wsw499572 0.0 1003163
03:00−16wsw359874 0.1 100659
06:00−18sw359996 0.0 100867
09:00−17ssw311100100 0.1 1009191
12:00−12ssw5149599 0.0 1009397
15:00−11ssw71494100 0.1 1009425
18:00−12ssw8179395 0.0 1009437
21:00−12ssw8189394 0.0 1010446
18 january, tue
tue1800:00−12ssw81893100 0.0 1010444
03:00−11ssw81892100 0.1 1010537
06:00−9s91891100 0.1 1010587
09:00−8s81792100 0.1 1011557
12:00−6s81793100 0.2 1011627
15:00−5s81692100 0.4 1012656
18:00−4ssw81693100 0.2 1014599
21:00−4ssw71593100 0.3 1015556
19 january, wed
wed1900:00−3ssw71594100 0.1 1017503
03:00−4ssw71493100 0.2 1018471
06:00−5s71492100 0.0 1019420
09:00−6s61493100 0.1 1021467
12:00−5s61392100 0.0 1022421
15:00−6s51193100 0.0 1023367
18:00−7sse4995100 0.0 1024267
21:00−9sse3995100 0.0 1025222
20 january, thu
thu2000:00−12sse359899 0.0 1026101
03:00−15sse2299100 0.1 102727
06:00−17sse22100100 0.0 102718
09:00−16sse2210094 0.1 102826
12:00−11s239695 0.0 1027113
15:00−15sse119883 0.1 10279
18:00−19sse11100100 0.0 10289
21:00−20sse1110099 0.0 10289